Home   Weather   La Serena   Past weeks

Flag for Chile Past Weather in La Serena, Chile — Yesterday and Last 2 Weeks

Now
59 °F

Broken clouds.


Feels Like: 57 °F
Forecast: 49 / 64 °F
Wind: 10 mph from West

Location: La Serena Airport

Current Time: Oct 1, 2016 at 4:04:46 PM

Latest Report: Oct 1, 2016 at 3:00 PM


Visibility: N/A

Pressure: 30.07 "Hg

Humidity: 72%

Dew Point: 50 °F

Location of La SerenaLocation

Past Weather in La Serena — Graph

°F

La Serena Temperature Yesterday

Maximum temperature yesterday: 64 °F (at 11:00 AM)
Minimum temperature yesterday: 48 °F (at 6:00 AM)
Average temperature yesterday: 56 °F

High & Low Weather Summary for the Past Weeks

 TemperatureHumidityPressure
High64 °F (Sep 30, 11:00 AM)100% (Sep 23, 6:00 AM)30.15 "Hg (Sep 23, 6:00 AM)
Low46 °F (Sep 18, 7:00 AM)52% (Sep 29, 4:00 PM)29.89 "Hg (Sep 19, 4:00 AM)
Average55 °F82%30.01 "Hg
* Reported Sep 16 3:00 PM — Oct 1 3:00 PM, La Serena, Weather by CustomWeather, © 2016

Note: Actual official high and low records may vary slightly from our data, if they occured in-between our weather recording intervals... More about our weather records

Advertising

La Serena Weather History for the Previous 24 Hours

Scroll right to see more
 ConditionsComfort  
Time TempWeatherWind HumidityBarometerVisibility
3:00 PM
Sat, Oct 1
59 °FBroken clouds.10 mph72%30.07 "HgN/A
2:00 PM59 °FPartly sunny.8 mph72%30.07 "HgN/A
1:00 PM57 °FMore clouds than sun.9 mph77%30.07 "HgN/A
12:00 PM55 °FMore clouds than sun.6 mph82%30.07 "HgN/A
11:00 AM55 °FMore clouds than sun.5 mph82%30.04 "HgN/A
10:00 AM54 °FOvercast.3 mph88%30.01 "HgN/A
9:00 AM52 °FOvercast.3 mph88%29.98 "HgN/A
8:00 AM52 °FOvercast.2 mph94%29.98 "HgN/A
7:00 AM48 °FOvercast.3 mph94%29.95 "Hg10 mi
6:00 AM48 °FClear.1 mph94%29.95 "Hg10 mi
5:00 AM50 °FClear.1 mph88%29.95 "Hg10 mi
4:00 AM50 °FClear.5 mph94%29.95 "Hg10 mi
3:00 AM50 °FClear.6 mph94%29.98 "Hg10 mi
2:00 AM50 °FClear.5 mph94%29.98 "Hg10 mi
1:00 AM52 °FClear.5 mph88%30.01 "Hg10 mi
12:00 AM54 °FClear.5 mph88%30.01 "Hg10 mi
11:00 PM
Fri, Sep 30
54 °FClear.2 mph94%30.01 "Hg10 mi
10:00 PM54 °FClear.2 mph94%30.01 "Hg10 mi
9:00 PM55 °FClear.5 mph88%30.01 "Hg10 mi
8:00 PM57 °FClear.6 mph82%29.98 "Hg10 mi
7:00 PM59 °FPassing clouds.12 mph77%29.98 "HgN/A
6:00 PM61 °FPassing clouds.14 mph72%29.98 "HgN/A
5:00 PM63 °FPassing clouds.13 mph73%29.98 "HgN/A
4:00 PM64 °FSunny.15 mph64%29.98 "Hg10 mi
Weather by CustomWeather, © 2016

See weather overviewHow to use our weather pages